Powrót do katalogu

GLOBALSTAR M063

AktywnyŁącznośćLEO
NORAD 26081·PAYLOAD·🇺🇸 United States

Wystrzelony Feb 8, 2000 z Cape Canaveral Space Force Station

Loading…

Następne Przeloty (najbliższe 24 godziny)

TLE

ŚwieżeSource: Space-Track

Epoka: Sep 14, 2026, 06:13 UTC

1 26081U 00008A   26257.25937402 -.00000102  00000-0 -28859-3 0  9999
2 26081  51.9988 355.6863 0004981 103.6122 270.8734 11.86188631211460

Śledź GLOBALSTAR M063 w czasie rzeczywistym z AllMySat

Download on the App Store